Starlink 3696

operational
NORAD ID: 51965 Int'l Des: 2022-025 Owner: SPXS Country: US Constellation: starlink
LEOCIRCULARSTARLINK_TYPE

关于 Starlink 3696

正在加载描述...

实时位置

正在加载3D地球...

即将过境

高度历史

Altitude vs Time

uPlot chart will show altitude changes over time

两行轨道根数

1 51965U 22025K 25305.54656762 -.00000830 00000-0 -36841-4 0 9992
2 51965 53.0562 251.0999 0001432 96.5758 263.5394 15.06393959201537
Epoch: Nov 1, 2025 • Age: 21 hours

当前状态

高度 552.6 km
速度 7.59 km/s
星下点 52.16°N, 157.02°E
发射日期 Mar 9, 2022
运行时间 3.6 years
类型 internet

技术详情

分类 Payload
质量 297.00 kg
干质量 275.00 kg
总质量 297.00 kg
长度 0.20 m
直径 2.80 m
跨度 9.00 m
形状 Box + pan
制造商 SPXS
平台类型 Starlink
阶段状态 In Orbit
所有者/国家 SPXS/US

大型星座

Loading constellations...